SCP
-0 0 0 0 0 0 0 0 0 0 0 0 0 0 0 0 0 0 0 0 0 0 0 0 0 0 0 0 0 0 0 0 0 0 0 0 0 0 0 0 0 0 0
-0 0 0 0 0 0 0 0 0 0 0 0 0 0 0 0 0 0 0 0 0 0 0 0 0 0 0 0 0 0 0 0 0 0 0 0 0 0 0 0 0 0 0
0 0 0 0 0 0 0 0 0 0 0 0 0 0 0 0 0 0 0 0 0 0 0 0 0 0 0 0 0 0 0 0 0 0 0 0 0 0 0 0 0 0 0
0 0 0 0 0 0 0 0 0 0 0 0 0 0 0 0 0 0 0 0 0 0 0 0 0 0 0 0 0 0 0 0 0 0 0 0 0 0 0 0 0 0 0
0 0 0 0 0 0 0 0 0 0 0 0 0 0 0 0 0 0 0 0 0 0 0 0 0 0 0 0 0 0 0 0 0 0 0 0 0 0 0 0 0 0 0
0 0 0 0 0 0 0 0 0 0 0 0 0 0 0 0 0 0 0 0 0 0 0 0 0 0 0 0 0 0 0 0 0 0 0 0 0 0 0 0 0 0 0
0 0 0 0 0 0 0 0 0 0 0 0 0 0 0 0 0 0 0 0 0 0 0 0 0 0 0 0 0 0 0 0 0 0 0 0 0 0 0 0 0 0 0
0 0 0 0 0 0 0 0 0 0 0 0 0 0 0 0 0 0 0 0 0 0 0 0 0 0 0 0 0 0 0 0 0 0 0 0 0 0 0 0 0 0 0
0 0 0 0 0 0 0 0 0 0 0 0 0 0 0 0 0 0 0 0 0 0 0 0 0 0 0 0 0 0 0 0 0 0 0 0 0 0 0 0 0 0 0
0 0 0 0 0 0 0 0 0 0 0 0 0 0 0 0 0 0 0 0 0 0 0 0 0 0 0 0 0 0 0 0 0 0 0 0 0 0 0 0 0 0 0
0 0 0 0 0 0 0 0 0 0 0 0 0 0 0 0 0 0 0 0 0 0 0 0 0 0 0 0 0 0 0 0 0 0 0 0 0 0 0 0 0 0 0
0 0 0 0 0 0 0 0 0 0 0 0 0 0 0 0 0 0 0 0 0 0 0 0 0 0 0 0 0 0 0 0 0 0 0 0 0 0 0 0 0 0 0
0 0 0 0 0 0 0 0 0 0 0 0 0 0 0 0 0 0 0 0 0 0 0 0 0 0 0 0 0 0 0 0 0 0 -0 -0 0 0 0 0 0 0 -0
0 0 0 0 0 0 0 0 0 0 0 0 0 0 0 0 0 0 0 0 0 0 0 0 0 0 0 0 0 0 -0 0 0 0 -0 -0 0 -0 -0 0 -0 -0 -0
0 0 0 0 0 0 0 0 0 0 0 0 0 0 0 0 0 0 0 0 0 0 0 0 0 0 0 0 0 0 -0 0 0 0 0 -0 -0 -0 -0 -0 0 -0 -0
0 0 0 0 0 0 0 0 0 0 0 0 0 0 0 0 0 0 0 0 0 0 0 0 -0 -0 0 0 0 0 0 0 0 0 -0 0 -0 0 0 0 0 0 0
0 0 0 0 0 0 0 0 0 0 0 0 0 0 0 0 0 0 0 0 0 0 -0 0 0 0 0 0 0 0 -0 0 0 0 0 0 -0 -0 0 -0 0 0 0
0 0 0 0 0 0 0 0 0 0 0 0 0 0 0 0 0 0 0 0 0 -0 -0 0 0 0 0 0 0 -0 -0 0 0 0 0 0 0 0 0 0 0 0 0
0 0 0 0 0 0 0 0 0 0 0 0 0 0 0 0 0 0 0 0 0 0 -0 0 0 0 0 0 0 0 0 0 0 0 0 0 0 0 -0 0 0 0 0
0 0 0 0 0 0 0 0 0 0 0 0 0 0 0 0 0 0 0 0 0 0 0 0 0 0 0 0 0 0 0 0 0 0 0 0 0 0 0 0 0 0 0
0 0 0 0 0 0 0 0 0 0 0 0 0 0 0 0 0 0 0 0 0 0 0 0 0 0 0 0 0 0 0 0 0 0 0 0 0 -0 0 0 0 0 0
0 0 0 0 0 0 0 0 0 0 0 0 0 0 0 0 0 0 0 0 0 0 0 0 0 0 0 0 0 0 0 0 0 0 0 0 0 0 0 0 0 0 0
0 0 0 0 0 0 0 0 0 0 0 0 0 0 0 0 0 0 0 0 0 0 -0 0 0 0 0 0 0 0 0 0 0 0 0 0 0 0 0 0 0 0 0
0 0 0 0 0 0 0 0 0 0 0 0 0 0 0 0 0 0 0 0 0 0 -0 0 0 0 0 0 0 0 0 0 0 0 0 0 0 0 0 0 0 0 0
0 0 0 0 0 0 0 0 0 0 0 0 0 0 0 0 0 0 0 0 0 -0 0 0 0 0 0 0 0 0 0 0 0 0 0 0 0 0 0 0 0 0 0
0 0 0 0 0 0 0 0 0 0 0 0 0 0 0 0 0 0 0 -0 0 -0 0 0 0 0 0 0 0 0 0 0 0 0 0 0 0 0 0 0 0 0 0
Wind_Speed_500mb
23 29 27 24 21 25 28 34 39 48 50 54 50 50 58 63 60 52 49 38 36 38 42 42 39 35 39 37 35 37 39 37 33 40 39 30 18 23 15 16 13 19 34
35 33 30 26 26 22 22 22 30 36 40 44 46 55 55 54 51 43 45 45 42 36 40 42 42 37 38 39 38 39 40 38 32 34 37 21 25 9 17 10 20 22 28
38 35 33 26 26 22 18 21 24 24 28 32 36 47 47 48 47 43 41 46 39 41 42 44 44 46 44 40 37 37 38 38 28 28 23 13 9 39 23 23 18 21 30
44 39 34 26 25 14 16 17 18 21 24 31 37 38 43 46 45 52 60 51 51 45 49 45 46 47 37 36 35 38 35 37 32 28 27 28 32 22 29 39 34 31 34
24 21 23 21 20 18 15 12 15 18 19 22 27 37 41 41 38 43 47 48 50 50 54 51 45 39 37 35 34 36 36 35 34 28 28 30 30 34 40 45 53 47 45
28 27 23 21 23 21 15 15 17 17 17 19 24 35 40 36 37 42 48 53 50 53 59 52 41 37 37 32 33 32 31 30 30 27 24 27 32 36 40 47 53 59 62
33 28 24 25 21 18 14 12 12 17 19 18 22 25 33 33 39 48 51 53 53 44 46 57 46 40 33 29 24 25 26 26 26 26 29 30 34 36 39 43 53 57 63
29 22 16 21 24 18 10 13 19 22 24 23 23 28 30 36 45 47 44 46 47 48 49 47 50 40 36 35 32 29 30 30 28 27 31 32 31 32 35 41 44 53 56
28 27 25 27 20 14 20 21 29 32 29 26 24 24 34 36 43 41 44 47 44 40 45 40 39 41 36 37 32 30 29 28 27 29 31 28 24 31 32 35 34 37 39
29 26 22 19 18 21 18 30 31 30 26 25 26 28 31 37 43 45 44 47 43 50 49 47 47 46 41 39 38 32 26 24 23 26 24 19 26 26 24 24 29 29 32
33 26 22 20 19 17 25 28 26 23 24 26 27 29 38 47 40 43 45 46 49 52 50 44 44 43 40 41 42 34 30 27 24 21 20 19 26 24 20 21 24 25 28
28 22 22 17 21 23 23 19 18 19 23 22 28 42 48 44 43 43 42 43 49 47 46 35 37 39 42 35 33 31 30 29 23 19 12 17 21 20 20 21 25 27 28
28 23 18 16 19 21 17 16 19 20 23 32 38 39 46 42 37 38 45 51 54 50 43 26 25 25 29 36 30 30 27 22 18 14 12 13 18 20 21 20 19 18 18
24 19 13 9 10 11 10 14 22 27 29 33 41 42 34 30 33 42 46 49 46 47 39 33 34 29 28 26 33 31 27 20 19 17 14 10 16 20 21 13 8 12 21
17 15 12 9 3 8 15 15 19 26 34 37 38 35 30 26 32 40 45 41 36 35 23 20 28 27 33 29 28 27 29 23 19 18 11 10 11 17 14 8 3 18 30
21 12 4 4 10 11 10 15 23 29 34 33 33 35 38 32 28 31 36 35 30 31 23 19 23 34 35 38 27 28 26 15 14 15 19 8 6 8 7 11 24 20 20
11 2 5 10 7 6 14 21 30 32 30 36 38 34 30 27 26 29 35 29 29 27 29 17 14 14 25 38 34 33 32 20 14 16 20 7 1 1 11 17 26 9 18
2 7 11 9 8 13 20 31 33 32 35 29 31 26 28 25 24 27 34 30 29 28 27 20 12 15 23 35 29 32 33 22 14 14 12 9 5 7 10 9 20 18 22
7 11 14 11 13 21 30 35 36 32 28 28 29 27 24 23 28 31 32 34 32 24 20 16 19 18 18 31 34 38 35 25 18 14 12 15 6 8 9 6 11 18 23
8 14 10 8 18 30 35 35 40 31 24 29 29 26 24 27 33 39 33 33 28 18 19 22 14 22 24 35 35 35 37 31 25 18 19 17 9 2 5 3 9 13 18
11 8 5 14 26 34 32 29 36 33 32 31 32 30 27 32 34 37 26 28 25 21 17 20 17 16 28 31 42 38 33 25 25 25 20 17 7 2 7 5 9 13 15
7 7 10 22 30 32 29 27 31 32 34 35 35 33 29 34 33 26 28 24 18 19 17 17 12 11 22 39 34 39 34 27 29 27 21 17 11 1 5 9 10 9 3
17 14 14 23 29 28 28 29 32 35 36 34 35 37 25 34 29 27 25 24 14 19 21 16 16 6 12 37 46 43 36 31 29 22 25 22 20 13 6 8 10 10 9
20 18 20 25 30 28 31 33 32 32 34 30 36 38 24 27 29 29 21 17 17 15 17 21 14 1 14 39 39 44 38 35 35 28 23 21 20 23 19 15 11 10 8
22 22 25 28 31 33 36 35 32 34 36 32 32 38 28 26 30 30 25 17 14 12 17 21 13 4 3 37 39 39 36 34 38 31 23 16 28 28 25 19 17 18 19
24 25 24 27 35 36 36 36 39 35 36 37 33 31 25 23 28 27 22 17 20 21 26 19 16 10 8 23 33 34 35 34 37 35 26 22 24 24 23 18 16 16 23
Wind_Direction_500mb
218 222 220 226 237 253 265 265 266 268 271 271 282 293 298 283 283 280 282 288 301 298 296 298 305 289 284 287 283 296 306 291 302 306 305 304 297 289 266 266 274 267 263
236 234 230 236 244 260 262 274 276 277 280 287 288 291 299 294 286 277 286 286 291 296 291 289 297 293 293 281 284 288 294 296 303 306 315 316 315 238 329 283 284 280 276
246 249 248 249 253 265 277 286 296 299 294 293 294 290 298 302 289 285 300 284 280 292 283 290 288 294 289 280 276 284 284 290 295 301 293 304 292 313 310 290 287 295 305
248 259 250 248 242 251 262 272 277 286 282 286 286 295 302 304 298 287 299 290 280 281 284 285 289 292 279 282 278 283 276 284 289 285 283 283 278 289 300 302 301 311 306
227 207 200 203 209 222 228 245 264 268 288 285 290 297 301 302 303 297 301 302 280 278 277 281 286 282 278 284 278 278 270 277 282 279 285 286 282 278 274 291 302 305 306
180 174 180 191 196 195 204 258 268 276 281 296 311 319 307 307 307 309 314 312 299 274 271 277 274 275 278 277 280 272 267 277 277 273 279 285 289 294 290 287 296 302 307
181 179 188 187 194 213 250 246 266 279 283 279 298 297 295 290 301 308 313 321 302 287 267 268 268 269 273 268 268 267 267 283 271 276 281 284 291 292 291 291 294 301 307
185 190 191 204 211 213 213 246 249 284 284 283 303 316 297 302 309 299 305 313 317 294 285 273 264 261 266 265 260 265 268 268 271 278 284 292 295 297 293 290 292 297 302
195 196 193 204 207 222 286 277 291 284 277 287 290 292 312 313 319 309 310 308 307 310 296 267 267 264 267 258 260 261 276 260 271 275 288 293 304 300 295 290 291 284 286
202 185 187 204 234 260 290 285 263 263 275 283 290 302 310 312 310 303 309 314 310 308 301 279 265 261 261 257 251 263 262 264 267 278 282 298 309 309 304 302 303 288 265
183 192 213 230 241 263 276 252 252 274 288 288 300 309 309 309 297 300 307 310 311 311 300 285 259 254 242 252 252 254 252 260 269 267 279 293 309 313 306 310 311 290 271
193 218 215 220 236 252 237 250 269 268 282 297 300 302 307 306 303 305 310 317 320 316 311 286 247 253 241 242 243 239 243 255 264 264 285 299 317 315 299 296 302 300 282
212 202 206 233 258 244 228 254 253 275 283 297 301 302 305 297 305 308 312 317 316 313 308 285 259 253 243 240 242 237 236 238 246 250 266 301 324 323 315 308 300 301 317
186 183 218 200 171 198 236 269 275 287 295 305 307 302 292 290 304 310 319 320 315 318 307 260 259 255 234 237 230 225 232 232 249 256 243 285 329 332 327 322 298 315 306
162 159 151 152 216 293 304 285 293 309 315 316 309 299 295 279 297 310 322 321 321 329 312 262 244 247 237 235 218 220 232 221 248 244 252 270 322 340 350 26 1 1 348
135 133 126 338 327 316 296 308 312 317 321 319 321 317 303 301 308 318 326 322 321 323 321 280 254 248 247 221 223 223 197 221 227 224 256 268 294 353 45 357 12 7 355
138 145 349 342 333 296 306 328 333 323 313 316 314 314 320 309 305 320 326 321 323 317 329 309 281 228 203 208 218 209 199 200 232 222 210 217 212 299 13 29 27 347 4
190 341 343 329 304 326 336 343 336 321 321 327 330 322 332 327 321 321 328 326 327 320 308 275 265 223 196 210 211 204 194 199 208 211 195 188 124 92 56 10 10 31 80
319 340 337 317 325 337 342 342 346 336 339 346 345 340 331 340 337 329 326 331 334 323 320 295 246 228 225 201 205 202 189 201 207 202 202 199 180 94 60 54 49 45 105
313 329 307 310 342 345 346 348 349 342 345 347 346 344 346 340 334 328 322 327 333 329 328 322 241 248 216 198 199 190 196 210 206 206 218 206 202 136 148 111 114 95 86
307 292 282 337 352 357 355 337 350 352 349 338 338 329 334 335 333 334 329 320 327 331 327 320 288 224 202 198 190 197 196 210 210 194 194 190 169 12 201 163 169 124 92
307 261 308 348 350 354 344 342 338 335 341 338 339 336 327 339 338 332 341 331 325 342 330 336 306 237 198 198 195 198 196 203 190 195 197 170 174 41 138 164 157 169 172
325 297 318 340 345 339 336 329 333 335 335 339 342 336 327 353 345 344 339 337 322 350 350 333 328 199 198 182 197 197 194 196 188 189 190 201 203 229 198 185 195 209 216
321 305 301 319 335 323 339 340 331 327 323 331 346 341 329 339 346 349 340 330 336 342 338 345 335 271 190 189 184 189 194 194 192 189 195 211 220 190 205 214 219 218 197
315 306 293 316 319 315 340 342 329 315 319 330 341 349 336 344 346 349 345 338 337 313 3 9 7 298 52 187 191 191 192 198 200 202 205 217 199 194 213 229 243 247 229
299 300 303 314 320 310 326 340 335 316 320 337 337 347 4 0 354 356 2 349 324 318 349 34 24 8 41 168 193 189 191 194 202 203 196 208 200 209 220 241 241 227 221
Wind_Speed_850mb
23 29 27 24 21 25 28 34 39 48 50 54 50 50 58 63 60 52 49 38 36 38 42 42 39 35 39 37 35 37 39 37 33 40 39 30 18 23 15 16 13 19 34
35 33 30 26 26 22 22 22 30 36 40 44 46 55 55 54 51 43 45 45 42 36 40 42 42 37 38 39 38 39 40 38 32 34 37 21 25 9 17 10 20 22 28
38 35 33 26 26 22 18 21 24 24 28 32 36 47 47 48 47 43 41 46 39 41 42 44 44 46 44 40 37 37 38 38 28 28 23 13 9 39 23 23 18 21 30
44 39 34 26 25 14 16 17 18 21 24 31 37 38 43 46 45 52 60 51 51 45 49 45 46 47 37 36 35 38 35 37 32 28 27 28 32 22 29 39 34 31 34
24 21 23 21 20 18 15 12 15 18 19 22 27 37 41 41 38 43 47 48 50 50 54 51 45 39 37 35 34 36 36 35 34 28 28 30 30 34 40 45 53 47 45
28 27 23 21 23 21 15 15 17 17 17 19 24 35 40 36 37 42 48 53 50 53 59 52 41 37 37 32 33 32 31 30 30 27 24 27 32 36 40 47 53 59 62
33 28 24 25 21 18 14 12 12 17 19 18 22 25 33 33 39 48 51 53 53 44 46 57 46 40 33 29 24 25 26 26 26 26 29 30 34 36 39 43 53 57 63
29 22 16 21 24 18 10 13 19 22 24 23 23 28 30 36 45 47 44 46 47 48 49 47 50 40 36 35 32 29 30 30 28 27 31 32 31 32 35 41 44 53 56
28 27 25 27 20 14 20 21 29 32 29 26 24 24 34 36 43 41 44 47 44 40 45 40 39 41 36 37 32 30 29 28 27 29 31 28 24 31 32 35 34 37 39
29 26 22 19 18 21 18 30 31 30 26 25 26 28 31 37 43 45 44 47 43 50 49 47 47 46 41 39 38 32 26 24 23 26 24 19 26 26 24 24 29 29 32
33 26 22 20 19 17 25 28 26 23 24 26 27 29 38 47 40 43 45 46 49 52 50 44 44 43 40 41 42 34 30 27 24 21 20 19 26 24 20 21 24 25 28
28 22 22 17 21 23 23 19 18 19 23 22 28 42 48 44 43 43 42 43 49 47 46 35 37 39 42 35 33 31 30 29 23 19 12 17 21 20 20 21 25 27 28
28 23 18 16 19 21 17 16 19 20 23 32 38 39 46 42 37 38 45 51 54 50 43 26 25 25 29 36 30 30 27 22 18 14 12 13 18 20 21 20 19 18 18
24 19 13 9 10 11 10 14 22 27 29 33 41 42 34 30 33 42 46 49 46 47 39 33 34 29 28 26 33 31 27 20 19 17 14 10 16 20 21 13 8 12 21
17 15 12 9 3 8 15 15 19 26 34 37 38 35 30 26 32 40 45 41 36 35 23 20 28 27 33 29 28 27 29 23 19 18 11 10 11 17 14 8 3 18 30
21 12 4 4 10 11 10 15 23 29 34 33 33 35 38 32 28 31 36 35 30 31 23 19 23 34 35 38 27 28 26 15 14 15 19 8 6 8 7 11 24 20 20
11 2 5 10 7 6 14 21 30 32 30 36 38 34 30 27 26 29 35 29 29 27 29 17 14 14 25 38 34 33 32 20 14 16 20 7 1 1 11 17 26 9 18
2 7 11 9 8 13 20 31 33 32 35 29 31 26 28 25 24 27 34 30 29 28 27 20 12 15 23 35 29 32 33 22 14 14 12 9 5 7 10 9 20 18 22
7 11 14 11 13 21 30 35 36 32 28 28 29 27 24 23 28 31 32 34 32 24 20 16 19 18 18 31 34 38 35 25 18 14 12 15 6 8 9 6 11 18 23
8 14 10 8 18 30 35 35 40 31 24 29 29 26 24 27 33 39 33 33 28 18 19 22 14 22 24 35 35 35 37 31 25 18 19 17 9 2 5 3 9 13 18
11 8 5 14 26 34 32 29 36 33 32 31 32 30 27 32 34 37 26 28 25 21 17 20 17 16 28 31 42 38 33 25 25 25 20 17 7 2 7 5 9 13 15
7 7 10 22 30 32 29 27 31 32 34 35 35 33 29 34 33 26 28 24 18 19 17 17 12 11 22 39 34 39 34 27 29 27 21 17 11 1 5 9 10 9 3
17 14 14 23 29 28 28 29 32 35 36 34 35 37 25 34 29 27 25 24 14 19 21 16 16 6 12 37 46 43 36 31 29 22 25 22 20 13 6 8 10 10 9
20 18 20 25 30 28 31 33 32 32 34 30 36 38 24 27 29 29 21 17 17 15 17 21 14 1 14 39 39 44 38 35 35 28 23 21 20 23 19 15 11 10 8
22 22 25 28 31 33 36 35 32 34 36 32 32 38 28 26 30 30 25 17 14 12 17 21 13 4 3 37 39 39 36 34 38 31 23 16 28 28 25 19 17 18 19
24 25 24 27 35 36 36 36 39 35 36 37 33 31 25 23 28 27 22 17 20 21 26 19 16 10 8 23 33 34 35 34 37 35 26 22 24 24 23 18 16 16 23
Wind_Direction_850mb
218 222 220 226 237 253 265 265 266 268 271 271 282 293 298 283 283 280 282 288 301 298 296 298 305 289 284 287 283 296 306 291 302 306 305 304 297 289 266 266 274 267 263
236 234 230 236 244 260 262 274 276 277 280 287 288 291 299 294 286 277 286 286 291 296 291 289 297 293 293 281 284 288 294 296 303 306 315 316 315 238 329 283 284 280 276
246 249 248 249 253 265 277 286 296 299 294 293 294 290 298 302 289 285 300 284 280 292 283 290 288 294 289 280 276 284 284 290 295 301 293 304 292 313 310 290 287 295 305
248 259 250 248 242 251 262 272 277 286 282 286 286 295 302 304 298 287 299 290 280 281 284 285 289 292 279 282 278 283 276 284 289 285 283 283 278 289 300 302 301 311 306
227 207 200 203 209 222 228 245 264 268 288 285 290 297 301 302 303 297 301 302 280 278 277 281 286 282 278 284 278 278 270 277 282 279 285 286 282 278 274 291 302 305 306
180 174 180 191 196 195 204 258 268 276 281 296 311 319 307 307 307 309 314 312 299 274 271 277 274 275 278 277 280 272 267 277 277 273 279 285 289 294 290 287 296 302 307
181 179 188 187 194 213 250 246 266 279 283 279 298 297 295 290 301 308 313 321 302 287 267 268 268 269 273 268 268 267 267 283 271 276 281 284 291 292 291 291 294 301 307
185 190 191 204 211 213 213 246 249 284 284 283 303 316 297 302 309 299 305 313 317 294 285 273 264 261 266 265 260 265 268 268 271 278 284 292 295 297 293 290 292 297 302
195 196 193 204 207 222 286 277 291 284 277 287 290 292 312 313 319 309 310 308 307 310 296 267 267 264 267 258 260 261 276 260 271 275 288 293 304 300 295 290 291 284 286
202 185 187 204 234 260 290 285 263 263 275 283 290 302 310 312 310 303 309 314 310 308 301 279 265 261 261 257 251 263 262 264 267 278 282 298 309 309 304 302 303 288 265
183 192 213 230 241 263 276 252 252 274 288 288 300 309 309 309 297 300 307 310 311 311 300 285 259 254 242 252 252 254 252 260 269 267 279 293 309 313 306 310 311 290 271
193 218 215 220 236 252 237 250 269 268 282 297 300 302 307 306 303 305 310 317 320 316 311 286 247 253 241 242 243 239 243 255 264 264 285 299 317 315 299 296 302 300 282
212 202 206 233 258 244 228 254 253 275 283 297 301 302 305 297 305 308 312 317 316 313 308 285 259 253 243 240 242 237 236 238 246 250 266 301 324 323 315 308 300 301 317
186 183 218 200 171 198 236 269 275 287 295 305 307 302 292 290 304 310 319 320 315 318 307 260 259 255 234 237 230 225 232 232 249 256 243 285 329 332 327 322 298 315 306
162 159 151 152 216 293 304 285 293 309 315 316 309 299 295 279 297 310 322 321 321 329 312 262 244 247 237 235 218 220 232 221 248 244 252 270 322 340 350 26 1 1 348
135 133 126 338 327 316 296 308 312 317 321 319 321 317 303 301 308 318 326 322 321 323 321 280 254 248 247 221 223 223 197 221 227 224 256 268 294 353 45 357 12 7 355
138 145 349 342 333 296 306 328 333 323 313 316 314 314 320 309 305 320 326 321 323 317 329 309 281 228 203 208 218 209 199 200 232 222 210 217 212 299 13 29 27 347 4
190 341 343 329 304 326 336 343 336 321 321 327 330 322 332 327 321 321 328 326 327 320 308 275 265 223 196 210 211 204 194 199 208 211 195 188 124 92 56 10 10 31 80
319 340 337 317 325 337 342 342 346 336 339 346 345 340 331 340 337 329 326 331 334 323 320 295 246 228 225 201 205 202 189 201 207 202 202 199 180 94 60 54 49 45 105
313 329 307 310 342 345 346 348 349 342 345 347 346 344 346 340 334 328 322 327 333 329 328 322 241 248 216 198 199 190 196 210 206 206 218 206 202 136 148 111 114 95 86
307 292 282 337 352 357 355 337 350 352 349 338 338 329 334 335 333 334 329 320 327 331 327 320 288 224 202 198 190 197 196 210 210 194 194 190 169 12 201 163 169 124 92
307 261 308 348 350 354 344 342 338 335 341 338 339 336 327 339 338 332 341 331 325 342 330 336 306 237 198 198 195 198 196 203 190 195 197 170 174 41 138 164 157 169 172
325 297 318 340 345 339 336 329 333 335 335 339 342 336 327 353 345 344 339 337 322 350 350 333 328 199 198 182 197 197 194 196 188 189 190 201 203 229 198 185 195 209 216
321 305 301 319 335 323 339 340 331 327 323 331 346 341 329 339 346 349 340 330 336 342 338 345 335 271 190 189 184 189 194 194 192 189 195 211 220 190 205 214 219 218 197
315 306 293 316 319 315 340 342 329 315 319 330 341 349 336 344 346 349 345 338 337 313 3 9 7 298 52 187 191 191 192 198 200 202 205 217 199 194 213 229 243 247 229
299 300 303 314 320 310 326 340 335 316 320 337 337 347 4 0 354 356 2 349 324 318 349 34 24 8 41 168 193 189 191 194 202 203 196 208 200 209 220 241 241 227 221